QPF
0.00 0.00 0.00 0.00 0.00 0.00 0.00 0.00 0.00 0.00 0.00 0.00 0.00 0.00 0.00 0.00 0.00 0.01 0.00 0.00 0.00 0.01 0.01 0.00 0.00 0.00 0.00 0.00 0.00 0.00 0.00 0.00 0.00 0.01 0.01 0.02 0.03 0.03 0.01 0.01 0.01 0.01 0.02
0.00 0.00 0.00 0.00 0.00 0.00 0.00 0.00 0.00 0.00 0.00 0.00 0.00 0.00 0.00 0.00 0.00 0.00 0.00 0.00 0.01 0.01 0.01 0.01 0.00 0.00 0.00 0.00 0.00 0.00 0.00 0.01 0.01 0.02 0.02 0.02 0.04 0.04 0.02 0.00 0.00 0.01 0.01
0.00 0.00 0.00 0.00 0.00 0.00 0.00 0.00 0.00 0.00 0.00 0.00 0.00 0.00 0.00 0.00 0.00 0.00 0.00 0.00 0.01 0.01 0.01 0.00 0.00 0.00 0.00 0.00 0.00 0.00 0.01 0.01 0.02 0.02 0.01 0.00 0.02 0.03 0.02 0.01 0.00 0.00 0.01
0.00 0.00 0.00 0.00 0.00 0.00 0.00 0.00 0.00 0.00 0.00 0.00 0.00 0.00 0.00 0.00 0.00 0.00 0.00 0.00 0.01 0.01 0.00 0.00 0.00 0.00 0.00 0.00 0.00 0.00 0.00 0.01 0.02 0.01 0.00 0.00 0.01 0.01 0.01 0.01 0.00 0.00 0.00
0.00 0.00 0.00 0.00 0.00 0.00 0.00 0.00 0.00 0.00 0.00 0.00 0.00 0.00 0.00 0.00 0.00 0.00 0.00 0.00 0.00 0.00 0.00 0.00 0.00 0.00 0.00 0.00 0.00 0.00 0.00 0.01 0.01 0.01 0.01 0.00 0.00 0.01 0.01 0.01 0.01 0.00 0.00
0.00 0.00 0.00 0.00 0.00 0.00 0.00 0.00 0.00 0.00 0.00 0.00 0.00 0.00 0.00 0.00 0.00 0.00 0.00 0.00 0.00 0.00 0.00 0.00 0.00 0.00 0.00 0.00 0.00 0.00 0.01 0.01 0.01 0.02 0.01 0.00 0.00 0.01 0.01 0.00 0.01 0.00 0.00
0.00 0.00 0.00 0.00 0.01 0.00 0.00 0.00 0.00 0.00 0.00 0.00 0.00 0.00 0.00 0.00 0.00 0.00 0.00 0.00 0.00 0.00 0.00 0.00 0.00 0.00 0.00 0.00 0.00 0.00 0.01 0.00 0.01 0.01 0.01 0.00 0.00 0.01 0.01 0.01 0.01 0.00 0.01
0.00 0.00 0.00 0.01 0.01 0.01 0.00 0.00 0.00 0.00 0.00 0.00 0.00 0.00 0.00 0.00 0.00 0.00 0.00 0.00 0.00 0.00 0.00 0.00 0.00 0.00 0.00 0.00 0.00 0.00 0.00 0.00 0.00 0.00 0.00 0.00 0.00 0.01 0.01 0.01 0.01 0.00 0.00
0.00 0.00 0.00 0.00 0.00 0.01 0.01 0.00 0.00 0.00 0.00 0.00 0.00 0.00 0.00 0.00 0.00 0.00 0.00 0.00 0.00 0.00 0.00 0.00 0.00 0.00 0.00 0.00 0.00 0.00 0.00 0.00 0.00 0.00 0.00 0.00 0.00 0.01 0.01 0.01 0.01 0.00 0.00
0.00 0.00 0.00 0.00 0.00 0.00 0.00 0.00 0.00 0.00 0.00 0.00 0.00 0.00 0.00 0.00 0.00 0.00 0.00 0.00 0.00 0.00 0.01 0.01 0.00 0.00 0.00 0.00 0.00 0.00 0.00 0.00 0.00 0.00 0.00 0.00 0.01 0.01 0.01 0.01 0.01 0.01 0.00
0.00 0.00 0.00 0.00 0.00 0.00 0.00 0.00 0.00 0.00 0.00 0.00 0.00 0.00 0.00 0.00 0.00 0.00 0.00 0.00 0.00 0.00 0.01 0.01 0.01 0.01 0.01 0.01 0.01 0.00 0.00 0.00 0.00 0.00 0.00 0.00 0.01 0.01 0.01 0.01 0.00 0.00 0.00
0.00 0.00 0.00 0.00 0.00 0.00 0.00 0.00 0.00 0.00 0.00 0.00 0.00 0.00 0.00 0.00 0.00 0.00 0.00 0.00 0.00 0.01 0.01 0.02 0.02 0.01 0.01 0.00 0.00 0.00 0.00 0.00 0.00 0.00 0.00 0.01 0.02 0.02 0.01 0.01 0.00 0.00 0.00
0.00 0.00 0.00 0.00 0.00 0.00 0.00 0.00 0.00 0.00 0.00 0.00 0.00 0.00 0.00 0.00 0.00 0.00 0.00 0.00 0.00 0.00 0.00 0.01 0.01 0.01 0.00 0.00 0.00 0.00 0.00 0.00 0.00 0.00 0.00 0.01 0.02 0.03 0.02 0.01 0.01 0.01 0.01
0.00 0.00 0.00 0.00 0.00 0.00 0.00 0.00 0.00 0.00 0.00 0.00 0.00 0.00 0.00 0.00 0.00 0.00 0.00 0.00 0.00 0.00 0.00 0.00 0.01 0.00 0.00 0.00 0.00 0.00 0.00 0.00 0.00 0.00 0.00 0.01 0.02 0.02 0.02 0.02 0.02 0.01 0.01
0.00 0.00 0.00 0.00 0.00 0.00 0.00 0.00 0.00 0.00 0.00 0.00 0.00 0.00 0.00 0.00 0.00 0.00 0.00 0.00 0.01 0.01 0.01 0.01 0.01 0.01 0.02 0.01 0.01 0.01 0.01 0.00 0.00 0.01 0.01 0.01 0.02 0.03 0.04 0.04 0.02 0.02 0.02
0.00 0.01 0.00 0.00 0.00 0.00 0.00 0.00 0.00 0.00 0.00 0.00 0.00 0.00 0.00 0.00 0.00 0.00 0.01 0.02 0.03 0.03 0.02 0.02 0.02 0.03 0.03 0.03 0.02 0.01 0.02 0.01 0.01 0.02 0.01 0.02 0.02 0.04 0.05 0.06 0.05 0.04 0.03
0.01 0.01 0.01 0.00 0.00 0.00 0.00 0.00 0.00 0.00 0.00 0.00 0.00 0.00 0.00 0.00 0.00 0.01 0.02 0.04 0.05 0.05 0.05 0.05 0.05 0.05 0.05 0.04 0.03 0.03 0.03 0.04 0.04 0.03 0.03 0.03 0.04 0.04 0.05 0.05 0.05 0.04 0.03
0.01 0.01 0.01 0.01 0.01 0.00 0.00 0.00 0.00 0.00 0.00 0.00 0.00 0.00 0.01 0.01 0.02 0.03 0.07 0.08 0.08 0.07 0.08 0.08 0.08 0.06 0.04 0.04 0.04 0.04 0.04 0.06 0.05 0.04 0.04 0.04 0.04 0.04 0.04 0.04 0.03 0.03 0.04
0.01 0.01 0.01 0.02 0.02 0.01 0.01 0.01 0.01 0.01 0.01 0.01 0.02 0.02 0.04 0.06 0.07 0.10 0.13 0.14 0.14 0.12 0.10 0.09 0.07 0.05 0.04 0.04 0.04 0.04 0.04 0.05 0.06 0.06 0.05 0.05 0.05 0.04 0.03 0.03 0.03 0.04 0.04
0.02 0.02 0.02 0.03 0.04 0.05 0.04 0.05 0.05 0.05 0.06 0.07 0.07 0.09 0.14 0.16 0.18 0.18 0.18 0.18 0.17 0.15 0.11 0.08 0.06 0.05 0.04 0.03 0.02 0.03 0.03 0.03 0.03 0.03 0.02 0.02 0.03 0.03 0.02 0.02 0.02 0.02 0.02
0.02 0.03 0.04 0.07 0.10 0.11 0.11 0.13 0.13 0.14 0.15 0.17 0.18 0.20 0.25 0.24 0.23 0.20 0.18 0.19 0.19 0.16 0.12 0.08 0.06 0.04 0.03 0.02 0.02 0.01 0.01 0.01 0.01 0.00 0.01 0.01 0.01 0.01 0.01 0.01 0.01 0.01 0.01
0.03 0.04 0.06 0.10 0.16 0.21 0.25 0.31 0.32 0.32 0.32 0.34 0.35 0.33 0.34 0.28 0.22 0.21 0.21 0.21 0.19 0.15 0.10 0.07 0.05 0.04 0.03 0.02 0.02 0.02 0.01 0.01 0.01 0.01 0.01 0.01 0.01 0.01 0.01 0.01 0.01 0.00 0.00
0.04 0.05 0.07 0.11 0.16 0.24 0.30 0.39 0.50 0.54 0.54 0.48 0.38 0.33 0.32 0.28 0.26 0.24 0.22 0.19 0.16 0.13 0.10 0.07 0.04 0.03 0.02 0.01 0.01 0.01 0.01 0.01 0.01 0.01 0.01 0.01 0.01 0.01 0.01 0.00 0.00 0.00 0.00
0.03 0.04 0.05 0.08 0.13 0.22 0.32 0.44 0.53 0.54 0.53 0.49 0.39 0.31 0.29 0.28 0.26 0.23 0.20 0.16 0.12 0.09 0.06 0.04 0.03 0.02 0.02 0.01 0.01 0.01 0.01 0.01 0.01 0.01 0.00 0.00 0.00 0.00 0.00 0.00 0.00 0.00 0.00
0.03 0.04 0.05 0.06 0.12 0.23 0.35 0.45 0.55 0.54 0.49 0.41 0.32 0.27 0.26 0.26 0.24 0.20 0.17 0.13 0.08 0.05 0.04 0.02 0.02 0.01 0.01 0.01 0.00 0.00 0.01 0.00 0.00 0.01 0.01 0.00 0.00 0.00 0.00 0.00 0.00 0.00 0.00
0.04 0.06 0.07 0.10 0.17 0.26 0.37 0.46 0.50 0.48 0.43 0.33 0.27 0.25 0.26 0.26 0.22 0.17 0.14 0.10 0.06 0.03 0.02 0.02 0.01 0.01 0.00 0.00 0.00 0.00 0.00 0.00 0.00 0.00 0.00 0.00 0.00 0.00 0.00 0.00 0.00 0.00 0.00
MSLP
1012.95 1012.70 1012.58 1012.61 1012.75 1012.97 1013.21 1013.43 1013.61 1013.76 1013.90 1014.09 1014.34 1014.68 1015.08 1015.52 1015.95 1016.33 1016.63 1016.83 1016.97 1017.06 1017.14 1017.23 1017.37 1017.54 1017.74 1017.93 1018.10 1018.24 1018.35 1018.44 1018.51 1018.59 1018.69 1018.81 1018.94 1019.08 1019.22 1019.35 1019.46 1019.58 1019.70
1012.55 1012.43 1012.43 1012.57 1012.80 1013.09 1013.37 1013.61 1013.80 1013.95 1014.11 1014.31 1014.59 1014.95 1015.38 1015.83 1016.27 1016.64 1016.91 1017.10 1017.22 1017.31 1017.39 1017.50 1017.64 1017.82 1018.00 1018.16 1018.30 1018.39 1018.44 1018.49 1018.54 1018.62 1018.73 1018.87 1019.03 1019.20 1019.34 1019.47 1019.58 1019.69 1019.80
1012.03 1012.04 1012.18 1012.43 1012.78 1013.15 1013.50 1013.79 1014.02 1014.20 1014.39 1014.61 1014.91 1015.28 1015.70 1016.15 1016.56 1016.90 1017.15 1017.31 1017.42 1017.50 1017.59 1017.71 1017.87 1018.04 1018.21 1018.35 1018.44 1018.48 1018.50 1018.51 1018.54 1018.62 1018.75 1018.92 1019.11 1019.30 1019.46 1019.60 1019.71 1019.81 1019.93
1011.53 1011.65 1011.91 1012.29 1012.75 1013.22 1013.65 1014.00 1014.28 1014.50 1014.71 1014.95 1015.25 1015.61 1016.02 1016.43 1016.80 1017.10 1017.31 1017.45 1017.54 1017.63 1017.74 1017.88 1018.06 1018.25 1018.41 1018.53 1018.59 1018.59 1018.58 1018.56 1018.59 1018.67 1018.82 1019.01 1019.23 1019.44 1019.62 1019.76 1019.88 1019.99 1020.11
1011.17 1011.39 1011.74 1012.22 1012.77 1013.33 1013.82 1014.24 1014.56 1014.81 1015.04 1015.29 1015.58 1015.93 1016.30 1016.66 1016.99 1017.24 1017.42 1017.54 1017.64 1017.74 1017.88 1018.05 1018.26 1018.46 1018.63 1018.74 1018.78 1018.77 1018.73 1018.70 1018.72 1018.81 1018.97 1019.18 1019.42 1019.64 1019.83 1019.98 1020.10 1020.21 1020.34
1011.05 1011.33 1011.75 1012.29 1012.90 1013.50 1014.04 1014.48 1014.83 1015.10 1015.34 1015.59 1015.87 1016.19 1016.53 1016.86 1017.14 1017.37 1017.52 1017.64 1017.74 1017.87 1018.04 1018.25 1018.49 1018.71 1018.89 1019.00 1019.03 1019.01 1018.96 1018.93 1018.95 1019.05 1019.22 1019.44 1019.68 1019.90 1020.10 1020.24 1020.36 1020.47 1020.61
1011.20 1011.51 1011.95 1012.52 1013.14 1013.74 1014.28 1014.72 1015.07 1015.34 1015.58 1015.82 1016.10 1016.41 1016.73 1017.03 1017.29 1017.50 1017.65 1017.77 1017.89 1018.05 1018.25 1018.49 1018.75 1018.99 1019.18 1019.29 1019.33 1019.30 1019.25 1019.22 1019.24 1019.35 1019.52 1019.74 1019.98 1020.20 1020.38 1020.52 1020.63 1020.74 1020.88
1011.59 1011.89 1012.33 1012.86 1013.45 1014.02 1014.52 1014.93 1015.25 1015.51 1015.75 1015.99 1016.27 1016.58 1016.90 1017.20 1017.46 1017.67 1017.83 1017.96 1018.10 1018.28 1018.49 1018.75 1019.02 1019.26 1019.45 1019.56 1019.59 1019.57 1019.53 1019.50 1019.54 1019.65 1019.82 1020.04 1020.27 1020.48 1020.65 1020.77 1020.88 1020.98 1021.11
1012.12 1012.39 1012.79 1013.27 1013.78 1014.28 1014.72 1015.08 1015.36 1015.61 1015.84 1016.10 1016.40 1016.73 1017.07 1017.39 1017.67 1017.90 1018.07 1018.22 1018.37 1018.54 1018.75 1019.00 1019.25 1019.47 1019.64 1019.74 1019.77 1019.75 1019.72 1019.71 1019.75 1019.87 1020.05 1020.26 1020.48 1020.68 1020.84 1020.96 1021.05 1021.15 1021.27
1012.64 1012.89 1013.23 1013.65 1014.08 1014.50 1014.86 1015.16 1015.41 1015.64 1015.89 1016.17 1016.50 1016.87 1017.24 1017.60 1017.91 1018.16 1018.35 1018.50 1018.65 1018.80 1018.99 1019.19 1019.40 1019.58 1019.72 1019.79 1019.81 1019.79 1019.77 1019.78 1019.84 1019.97 1020.16 1020.37 1020.59 1020.78 1020.93 1021.05 1021.14 1021.24 1021.37
1013.03 1013.27 1013.58 1013.93 1014.29 1014.63 1014.93 1015.18 1015.41 1015.64 1015.90 1016.22 1016.59 1017.00 1017.42 1017.81 1018.14 1018.41 1018.62 1018.77 1018.90 1019.02 1019.16 1019.31 1019.46 1019.58 1019.67 1019.71 1019.71 1019.70 1019.69 1019.72 1019.80 1019.95 1020.14 1020.36 1020.58 1020.78 1020.93 1021.06 1021.16 1021.27 1021.40
1013.23 1013.46 1013.75 1014.06 1014.37 1014.67 1014.93 1015.16 1015.38 1015.63 1015.92 1016.27 1016.67 1017.11 1017.56 1017.98 1018.33 1018.62 1018.82 1018.97 1019.07 1019.16 1019.25 1019.34 1019.42 1019.49 1019.53 1019.54 1019.53 1019.51 1019.52 1019.57 1019.67 1019.83 1020.04 1020.27 1020.49 1020.70 1020.87 1021.01 1021.13 1021.26 1021.41
1013.18 1013.44 1013.73 1014.03 1014.33 1014.61 1014.87 1015.11 1015.35 1015.62 1015.94 1016.31 1016.74 1017.19 1017.65 1018.07 1018.43 1018.72 1018.92 1019.06 1019.15 1019.22 1019.26 1019.30 1019.34 1019.35 1019.35 1019.34 1019.32 1019.31 1019.33 1019.40 1019.52 1019.70 1019.92 1020.15 1020.38 1020.59 1020.78 1020.94 1021.09 1021.24 1021.41
1012.93 1013.23 1013.54 1013.86 1014.18 1014.48 1014.76 1015.04 1015.32 1015.62 1015.96 1016.35 1016.77 1017.22 1017.65 1018.05 1018.40 1018.68 1018.88 1019.02 1019.12 1019.17 1019.21 1019.23 1019.24 1019.23 1019.21 1019.19 1019.17 1019.18 1019.22 1019.30 1019.44 1019.62 1019.84 1020.08 1020.31 1020.52 1020.72 1020.89 1021.06 1021.24 1021.43
1012.52 1012.86 1013.22 1013.58 1013.93 1014.28 1014.62 1014.95 1015.27 1015.62 1015.97 1016.35 1016.75 1017.16 1017.55 1017.91 1018.23 1018.49 1018.70 1018.86 1018.97 1019.06 1019.11 1019.14 1019.16 1019.17 1019.16 1019.15 1019.15 1019.17 1019.23 1019.33 1019.48 1019.66 1019.87 1020.09 1020.31 1020.51 1020.71 1020.89 1021.07 1021.26 1021.47
1012.04 1012.41 1012.80 1013.21 1013.62 1014.03 1014.43 1014.83 1015.21 1015.58 1015.95 1016.31 1016.67 1017.01 1017.34 1017.64 1017.92 1018.17 1018.39 1018.58 1018.74 1018.88 1018.99 1019.07 1019.14 1019.18 1019.21 1019.24 1019.27 1019.32 1019.40 1019.51 1019.66 1019.83 1020.02 1020.22 1020.41 1020.60 1020.77 1020.95 1021.13 1021.32 1021.52
1011.55 1011.94 1012.35 1012.79 1013.25 1013.72 1014.20 1014.66 1015.10 1015.51 1015.88 1016.22 1016.52 1016.80 1017.06 1017.30 1017.54 1017.78 1018.01 1018.24 1018.47 1018.68 1018.86 1019.02 1019.16 1019.26 1019.35 1019.42 1019.50 1019.58 1019.68 1019.81 1019.95 1020.11 1020.28 1020.45 1020.61 1020.76 1020.91 1021.06 1021.22 1021.39 1021.58
1011.11 1011.49 1011.90 1012.35 1012.85 1013.37 1013.90 1014.43 1014.92 1015.37 1015.75 1016.07 1016.34 1016.55 1016.75 1016.94 1017.14 1017.37 1017.62 1017.90 1018.19 1018.48 1018.75 1018.99 1019.20 1019.38 1019.53 1019.66 1019.78 1019.90 1020.03 1020.17 1020.32 1020.46 1020.61 1020.74 1020.86 1020.98 1021.10 1021.22 1021.34 1021.49 1021.64
1010.76 1011.10 1011.48 1011.92 1012.42 1012.97 1013.55 1014.14 1014.69 1015.18 1015.58 1015.91 1016.15 1016.33 1016.49 1016.64 1016.82 1017.04 1017.31 1017.63 1017.97 1018.32 1018.66 1018.98 1019.26 1019.50 1019.70 1019.89 1020.06 1020.22 1020.38 1020.54 1020.69 1020.83 1020.96 1021.06 1021.16 1021.24 1021.32 1021.41 1021.50 1021.60 1021.71
1010.53 1010.80 1011.13 1011.52 1012.00 1012.55 1013.16 1013.79 1014.40 1014.94 1015.40 1015.75 1016.00 1016.19 1016.33 1016.47 1016.64 1016.86 1017.14 1017.48 1017.85 1018.24 1018.62 1018.98 1019.31 1019.60 1019.85 1020.08 1020.29 1020.49 1020.68 1020.87 1021.03 1021.18 1021.30 1021.39 1021.47 1021.53 1021.58 1021.64 1021.70 1021.76 1021.83
1010.44 1010.62 1010.86 1011.18 1011.62 1012.15 1012.77 1013.43 1014.10 1014.70 1015.23 1015.64 1015.94 1016.16 1016.33 1016.48 1016.65 1016.88 1017.16 1017.50 1017.87 1018.27 1018.66 1019.04 1019.38 1019.69 1019.98 1020.24 1020.48 1020.72 1020.94 1021.15 1021.34 1021.49 1021.62 1021.72 1021.79 1021.84 1021.88 1021.91 1021.95 1021.98 1022.01
1010.50 1010.59 1010.72 1010.96 1011.32 1011.82 1012.43 1013.12 1013.83 1014.51 1015.11 1015.61 1015.99 1016.28 1016.50 1016.69 1016.88 1017.11 1017.38 1017.70 1018.06 1018.43 1018.80 1019.16 1019.50 1019.81 1020.10 1020.38 1020.66 1020.92 1021.17 1021.41 1021.62 1021.79 1021.94 1022.04 1022.12 1022.18 1022.21 1022.24 1022.26 1022.27 1022.27
1010.73 1010.72 1010.75 1010.89 1011.17 1011.61 1012.20 1012.90 1013.65 1014.40 1015.09 1015.69 1016.17 1016.55 1016.85 1017.09 1017.31 1017.54 1017.81 1018.09 1018.41 1018.74 1019.07 1019.39 1019.70 1020.00 1020.29 1020.58 1020.86 1021.14 1021.42 1021.68 1021.91 1022.11 1022.27 1022.39 1022.48 1022.54 1022.59 1022.62 1022.63 1022.63 1022.61
1011.14 1011.04 1010.98 1011.03 1011.22 1011.60 1012.15 1012.83 1013.61 1014.42 1015.19 1015.88 1016.47 1016.95 1017.33 1017.63 1017.89 1018.14 1018.38 1018.63 1018.90 1019.18 1019.46 1019.74 1020.01 1020.29 1020.57 1020.86 1021.15 1021.45 1021.74 1022.01 1022.25 1022.46 1022.63 1022.77 1022.87 1022.95 1023.00 1023.04 1023.05 1023.04 1023.00
1011.72 1011.56 1011.43 1011.39 1011.51 1011.82 1012.31 1012.97 1013.75 1014.59 1015.42 1016.19 1016.87 1017.44 1017.89 1018.26 1018.56 1018.81 1019.05 1019.27 1019.50 1019.73 1019.96 1020.20 1020.45 1020.71 1020.98 1021.26 1021.55 1021.85 1022.14 1022.41 1022.65 1022.86 1023.04 1023.18 1023.28 1023.36 1023.42 1023.46 1023.47 1023.46 1023.40
1012.47 1012.28 1012.10 1012.00 1012.05 1012.29 1012.73 1013.34 1014.10 1014.94 1015.80 1016.62 1017.36 1017.99 1018.51 1018.93 1019.26 1019.53 1019.75 1019.96 1020.16 1020.36 1020.56 1020.77 1021.00 1021.25 1021.51 1021.78 1022.06 1022.35 1022.62 1022.88 1023.11 1023.30 1023.46 1023.59 1023.70 1023.77 1023.83 1023.86 1023.86 1023.83 1023.76
Thickness
5787 5786 5783 5780 5779 5779 5779 5779 5778 5776 5775 5773 5771 5769 5766 5764 5762 5761 5759 5758 5757 5756 5754 5753 5752 5751 5751 5750 5748 5747 5746 5745 5744 5744 5743 5742 5740 5739 5739 5738 5736 5734 5732
5793 5787 5782 5779 5777 5776 5776 5775 5774 5773 5771 5770 5768 5766 5764 5762 5760 5759 5757 5756 5754 5753 5752 5750 5749 5748 5747 5746 5745 5744 5743 5742 5741 5741 5740 5739 5737 5736 5735 5734 5733 5731 5730
5792 5786 5781 5777 5775 5774 5773 5772 5771 5769 5767 5766 5764 5763 5761 5760 5758 5756 5755 5753 5752 5750 5749 5747 5746 5745 5744 5743 5742 5741 5741 5739 5738 5738 5737 5736 5734 5733 5732 5730 5729 5728 5726
5790 5784 5779 5776 5773 5772 5770 5769 5767 5766 5764 5762 5761 5759 5758 5756 5755 5753 5752 5750 5749 5747 5746 5744 5744 5743 5742 5740 5740 5739 5738 5737 5735 5734 5733 5732 5730 5729 5728 5726 5725 5724 5722
5787 5782 5778 5774 5772 5770 5768 5766 5765 5763 5761 5759 5757 5756 5754 5753 5752 5751 5749 5748 5746 5744 5742 5741 5741 5740 5739 5738 5737 5736 5735 5734 5732 5731 5729 5728 5726 5725 5723 5722 5721 5720 5718
5784 5780 5776 5773 5770 5768 5766 5764 5762 5760 5758 5756 5755 5753 5752 5750 5749 5748 5746 5745 5743 5740 5739 5738 5737 5737 5736 5736 5734 5733 5733 5732 5730 5728 5726 5724 5722 5721 5719 5718 5716 5715 5714
5782 5778 5775 5771 5768 5766 5764 5763 5761 5758 5756 5754 5753 5751 5750 5748 5746 5745 5743 5741 5739 5737 5735 5734 5733 5733 5733 5732 5731 5730 5729 5728 5727 5725 5722 5720 5719 5717 5715 5713 5711 5711 5710
5782 5777 5773 5770 5767 5765 5763 5761 5759 5757 5755 5753 5751 5749 5747 5746 5744 5742 5740 5738 5736 5733 5731 5730 5729 5729 5729 5728 5728 5726 5725 5724 5723 5721 5719 5717 5715 5713 5711 5709 5707 5706 5705
5779 5775 5772 5769 5767 5764 5762 5760 5758 5756 5754 5751 5749 5747 5745 5743 5741 5739 5737 5735 5733 5730 5727 5726 5726 5726 5725 5725 5724 5723 5722 5720 5719 5717 5715 5713 5711 5709 5707 5705 5703 5702 5701
5776 5774 5771 5769 5767 5764 5762 5759 5757 5755 5752 5750 5748 5746 5743 5741 5739 5737 5734 5732 5730 5727 5724 5723 5722 5722 5721 5721 5720 5719 5718 5716 5714 5712 5711 5709 5707 5706 5704 5702 5700 5698 5696
5772 5772 5771 5769 5767 5764 5761 5759 5756 5753 5751 5749 5746 5744 5741 5739 5737 5734 5732 5730 5727 5724 5721 5719 5719 5718 5718 5717 5717 5716 5714 5712 5710 5709 5707 5706 5704 5702 5700 5698 5697 5695 5693
5771 5771 5771 5770 5767 5764 5761 5758 5755 5752 5750 5748 5745 5743 5740 5737 5735 5733 5730 5728 5725 5722 5719 5717 5716 5715 5714 5714 5713 5712 5711 5709 5707 5705 5704 5702 5700 5699 5697 5695 5693 5692 5690
5774 5772 5772 5770 5768 5765 5762 5758 5755 5752 5750 5747 5744 5742 5739 5736 5733 5731 5728 5726 5723 5720 5718 5715 5714 5712 5712 5711 5710 5709 5707 5705 5703 5702 5701 5699 5697 5695 5693 5691 5690 5688 5686
5774 5773 5772 5771 5768 5765 5762 5759 5755 5752 5749 5746 5743 5740 5737 5734 5731 5729 5726 5724 5721 5719 5716 5714 5712 5711 5709 5708 5707 5706 5704 5702 5700 5699 5697 5695 5693 5691 5690 5688 5686 5684 5682
5775 5774 5772 5771 5768 5766 5762 5759 5755 5752 5749 5746 5743 5740 5737 5733 5730 5728 5725 5722 5720 5717 5715 5712 5710 5708 5707 5706 5705 5703 5701 5700 5697 5695 5693 5691 5690 5687 5685 5683 5682 5680 5678
5777 5776 5774 5771 5769 5766 5763 5760 5756 5752 5748 5745 5742 5740 5736 5733 5730 5727 5724 5721 5718 5716 5713 5711 5708 5706 5704 5703 5701 5700 5698 5696 5694 5691 5689 5687 5685 5683 5681 5678 5676 5674 5672
5780 5778 5775 5772 5769 5765 5762 5758 5755 5751 5747 5744 5741 5738 5735 5732 5728 5725 5722 5719 5717 5714 5711 5708 5706 5703 5701 5699 5696 5695 5693 5691 5689 5687 5685 5682 5680 5678 5675 5672 5670 5668 5666
5779 5777 5775 5773 5768 5764 5760 5757 5753 5749 5746 5742 5740 5737 5734 5730 5727 5723 5720 5717 5714 5711 5707 5704 5702 5699 5696 5694 5691 5689 5687 5686 5683 5681 5679 5677 5674 5672 5669 5666 5664 5661 5658
5779 5776 5774 5773 5769 5764 5759 5755 5751 5748 5744 5741 5738 5736 5732 5729 5725 5721 5717 5713 5709 5706 5703 5700 5697 5695 5691 5688 5685 5683 5681 5679 5676 5675 5673 5670 5667 5664 5662 5659 5656 5653 5650
5778 5775 5773 5771 5768 5762 5757 5753 5749 5744 5741 5737 5735 5732 5729 5725 5721 5717 5713 5708 5704 5701 5697 5694 5691 5688 5685 5683 5681 5676 5673 5671 5669 5667 5665 5663 5660 5657 5654 5651 5648 5645 5642
5774 5773 5772 5769 5765 5760 5755 5750 5744 5739 5735 5731 5728 5725 5722 5718 5715 5712 5707 5703 5699 5695 5692 5689 5685 5681 5677 5675 5672 5666 5664 5662 5660 5658 5656 5654 5651 5648 5645 5643 5640 5637 5634
5770 5769 5768 5767 5764 5759 5754 5750 5743 5736 5730 5724 5719 5717 5715 5713 5710 5706 5702 5698 5694 5689 5685 5682 5679 5674 5670 5666 5664 5659 5654 5650 5649 5648 5646 5643 5641 5638 5636 5633 5630 5628 5625
5764 5764 5764 5763 5760 5755 5751 5745 5737 5731 5724 5717 5711 5708 5706 5703 5701 5698 5695 5691 5687 5684 5679 5675 5672 5669 5663 5657 5656 5654 5648 5644 5638 5635 5632 5631 5629 5626 5624 5622 5620 5617 5614
5761 5763 5762 5759 5756 5752 5747 5741 5735 5727 5718 5713 5707 5702 5697 5694 5691 5688 5685 5681 5678 5674 5670 5667 5664 5660 5657 5651 5646 5643 5640 5638 5632 5625 5621 5619 5617 5614 5612 5609 5607 5604 5601
5754 5756 5756 5754 5750 5745 5741 5735 5728 5720 5713 5706 5699 5692 5687 5683 5678 5676 5673 5671 5667 5663 5659 5656 5653 5650 5646 5642 5637 5633 5628 5624 5622 5619 5612 5606 5603 5600 5597 5594 5592 5589 5585
5744 5747 5746 5744 5739 5737 5732 5725 5719 5710 5703 5694 5687 5682 5676 5671 5667 5663 5660 5658 5654 5650 5647 5644 5641 5637 5633 5629 5625 5621 5617 5614 5609 5604 5599 5593 5589 5586 5582 5579 5576 5573 5569